Home > Weather > George Town > Past weeks

Flag for Cayman Islands Past Weather in George Town, Cayman Islands — Yesterday and Last 2 Weeks

Now
84 °F

Passing clouds.


Feels Like: 92 °F
Forecast: 83 / 88 °F
Wind: 5 mph from East

Location: Cayo Largo Del Sur

Current Time: Jul 23, 2016 at 8:13:12 AM

Latest Report: Jul 23, 2016 at 6:50 AM


Visibility: 6 mi

Pressure: 29.98 "Hg

Humidity: 74%

Dew Point: 75 °F

Location of George TownLocation

Past Weather in George Town — Graph

°F

George Town Temperature Yesterday

Maximum temperature yesterday: 90 °F (at 1:51 PM)
Minimum temperature yesterday: 82 °F (at 5:50 AM)
Average temperature yesterday: 87 °F

High & Low Weather Summary for the Past Weeks

 TemperatureHumidityPressure
High90 °F (Jul 8, 10:52 AM)89% (Jul 10, 3:05 AM)30.09 "Hg (Jul 10, 3:05 AM)
Low72 °F (Jul 18, 5:54 PM)52% (Jul 18, 1:50 PM)29.95 "Hg (Jul 15, 3:51 PM)
Average85 °F68%30.02 "Hg
* Reported Jul 8 6:53 AM — Jul 23 6:50 AM, George Town, Weather by CustomWeather, © 2016

Note: Actual official high and low records may vary slightly from our data, if they occured in-between our weather recording intervals... More about our weather records

Advertising

George Town Weather History for the Previous 24 Hours

Scroll right to see more
 ConditionsComfort  
Time TempWeatherWind HumidityBarometerVisibility
6:50 AM
Sat, Jul 23
84 °FPassing clouds.5 mph74%29.98 "Hg6 mi
5:50 AM82 °FPassing clouds.3 mph79%29.98 "Hg6 mi
5:05 AM82 °FWarm.6 mph79%29.98 "HgN/A
4:05 AM82 °FWarm.5 mph79%29.98 "HgN/A
3:05 AM82 °FWarm.3 mph79%29.98 "HgN/A
2:05 AM82 °FWarm.2 mph74%29.98 "HgN/A
1:05 AM84 °FWarm.3 mph70%30.01 "HgN/A
12:05 AM84 °FWarm.3 mph74%30.01 "HgN/A
11:05 PM
Fri, Jul 22
84 °FWarm.8 mph70%30.04 "HgN/A
10:05 PM84 °FWarm.8 mph74%30.01 "HgN/A
9:05 PM84 °FWarm.10 mph74%30.01 "HgN/A
8:05 PM86 °FWarm.8 mph70%30.01 "HgN/A
7:05 PM86 °FWarm.2 mph70%30.01 "HgN/A
5:50 PM88 °FPassing clouds.3 mph66%29.98 "Hg6 mi
4:50 PM88 °FScattered clouds.8 mph66%29.98 "Hg6 mi
3:53 PM88 °FScattered clouds.8 mph66%29.98 "Hg6 mi
2:50 PM88 °FScattered clouds.10 mph66%30.01 "Hg6 mi
1:51 PM90 °FScattered clouds.12 mph63%30.01 "Hg6 mi
12:50 PM88 °FPartly sunny.9 mph66%30.04 "Hg6 mi
11:52 AM88 °FPassing clouds.10 mph66%30.04 "Hg6 mi
10:51 AM88 °FScattered clouds.9 mph66%30.04 "Hg6 mi
9:51 AM88 °FPassing clouds.9 mph66%30.04 "Hg6 mi
8:50 AM86 °FPassing clouds.9 mph70%30.04 "Hg6 mi
Weather by CustomWeather, © 2016

See weather overviewHow to use our weather pages